Flag for China Weather past 2 weeks in Changsha, Hunan, China

Now
90 °F

Passing clouds.


Feels Like: 98 °F
Forecast: 74 / 87 °F
Wind: 3 mph from South

Location: Changsha

Current Time: Aug 31, 2014 at 6:56:45 PM

Latest Report: Aug 31, 2014 at 6:00 PM


Visibility: N/A

Pressure: 29.71 "Hg

Humidity: 59%

Dew point: 73 °F

Location of ChangshaLocation

Historic Weather in Changsha — Graph

°F

Changsha temperature yesterday

Maximum temperature yesterday: 97 °F (at 3:00 PM)
Minimum temperature yesterday: 75 °F (at 3:00 AM)
Average temperature yesterday: 85 °F

Past Weeks' High & Low Weather Summary

 TemperatureHumidityPressure
High97 °F (Aug 30, 3:00 PM)94% (Aug 17, 5:00 AM)29.95 "Hg (Aug 17, 5:00 AM)
Low70 °F (Aug 18, 7:00 PM)42% (Aug 30, 3:00 PM)29.65 "Hg (Aug 23, 4:00 PM)
Average80 °F77%29.82 "Hg
* Reported Aug 16 5:00 PM — Aug 31 5:00 PM, Changsha, Weather by CustomWeather, © 2014

Note: Actual official high and low records may vary slightly from our data, if they occured in-between our weather recording intervals... More about our weather records

Advertising

Changsha weather history for previous 24 hours

 ConditionsComfort  
Time TempWeatherWind HumidityBarometerVisibility
5:00 PM
Aug 31
95 °FScattered clouds.3 mph44%29.71 "HgN/A
4:00 PM97 °FPartly sunny.3 mph42%29.71 "HgN/A
3:00 PM97 °FPartly sunny.3 mph42%29.71 "HgN/A
2:00 PM95 °FScattered clouds.6 mph47%29.74 "HgN/A
1:00 PM95 °FScattered clouds.3 mph50%29.77 "HgN/A
12:00 PM93 °FPassing clouds.8 mph49%29.77 "HgN/A
11:00 AM91 °FPassing clouds.8 mph56%29.80 "HgN/A
10:00 AM88 °FSunny.10 mph62%29.80 "Hg10 mi
9:00 AM86 °FSunny.8 mph66%29.80 "Hg10 mi
8:00 AM82 °FClear.6 mph79%29.77 "Hg4 mi
7:00 AM79 °FClear.3 mph84%29.77 "Hg4 mi
6:00 AM77 °FClear.6 mph89%29.74 "Hg4 mi
5:00 AM77 °FClear.1 mph89%29.74 "Hg4 mi
4:00 AM79 °FClear.3 mph84%29.74 "Hg5 mi
3:00 AM79 °FClear.3 mph84%29.74 "Hg5 mi
2:00 AM79 °FClear.3 mph89%29.77 "Hg10 mi
1:00 AM81 °FClear.3 mph79%29.77 "Hg10 mi
12:00 AM81 °FClear.6 mph84%29.80 "Hg10 mi
11:00 PM
Aug 30
82 °FClear.3 mph74%29.80 "Hg10 mi
10:00 PM82 °FClear.3 mph74%29.80 "Hg10 mi
9:00 PM84 °FClear.6 mph74%29.80 "Hg10 mi
8:00 PM86 °FClear.3 mph70%29.80 "Hg10 mi
7:00 PM88 °FClear.1 mph66%29.77 "Hg10 mi
6:00 PM93 °FPassing clouds.3 mph49%29.77 "HgN/A
Weather by CustomWeather, © 2014

See weather overviewHow to use our weather pages